Location: Newark
(12.5331°N, 56.4669°W)
Time: 00:52:26
(UTC+00:00)

LightSail 2 - Pass Details

Date: 29 January 2020
Orbit: 700 x 722 km, 24.0° (Epoch: 20 February)

Event Time Altitude Azimuth Distance (km) Brightness Sun altitude
Rises 00:33:48 0° 282° (WNW) 3,079 9.2 -40.4°
Reaches altitude 10° 00:36:20 10° 274° (W) 2,165 8.2 -41.0°
Enters shadow 00:36:54 13° 272° (W) 1,973 8.0 -41.1°
